Tracking 22879 objects as of 20-Apr-2021
HD Live streaming from Space Station
objects crossing your sky now

INSAT 3B

Track INSAT 3B now!
INSAT 3B is classified as:


NORAD ID: 26108
Int'l Code: 2000-016B
Perigee: 35,958.6 km
Apogee: 35,974.8 km
Inclination: 7.0 °
Period: 1,444.9 minutes
Semi major axis: 42337 km
RCS: 5.0119 m2 (large)
Launch date: March 21, 2000
Source: India (IND)
Launch site: FRENCH GUIANA (FRGUI)

Voice, data and fax transmissions.
aabbcc
Your satellite tracking list
Your tracking list is empty




NASA's NSSDC Master Catalog

Two Line Element Set (TLE):
1 26108U 00016B   21109.60882581  .00000116  00000-0  00000-0 0  9993
2 26108   6.9845  59.3996 0001912 210.1053 196.0514  0.99657849 32656
Source of the keplerian elements: AFSPC